Showing default

NIMBUS 2, 2173

Orbit data source: Space-Track

NIMBUS 2, 2173 is a payload satellite owned by GSFC (US) in SSO that was launched on Sun, 15 May 1966 UTC via a THOR SLV-2A AGENA B launch vehicle from the Air Force Western Test Range (AFWTR). Payload-class satellites include a variety of spacecraft equipped with specific instruments for various scientific and technological missions. These include communications satellites like Starlink; space stations such as the ISS; scientific satellites like the Hubble; Earth observation satellites from companies like Planet Labs, Umbra, and HawkEye 360; GPS; miniature CubeSats for education and research; and military/defense satellites.

Loading next visibility...
Identifier
2173, 1966-040A
Orbit
SSO
Country
Flag of USUS
Related business
Manufacturer
GE/MSVD
Mission
Non-operational spacecraft
Bus & Motor
NIMBUS, Unknown motor
Mass
414 kg wet, 414 kg dry
Launch date (UTC)
1966-05-15 (59 years ago)
Launch vehicle
THOR SLV-2A AGENA B
Launch site
Air Force Western Test Range (AFWTR)
Object type
Payload
Rocket body
Debris
Shape & HBR
Unknown
Radar Cross Section
Large (>1 m²)

Expand to show TLE details & history
Last TLE update: 1 day ago

TLE from 1 day ago
0 NIMBUS 2
1 02173U 66040A   25300.34779431 -.00000015  00000-0  65143-4 0  9997
2 02173 100.5543 147.3312 0055698 121.9930  50.4348 13.33705864892588
Epoch: 2025-10-27T08:20Z
TLE epoch observation values (Epoch: 2025-10-27T08:20:49.428Z)
Latitude
6.88803°
Longitude
167.45741°
Altitude
1,108.41 km
Speed
7.312 km/s
True Right ascension
21h 54m 27s
True Declination
6° 50' 57"
Sunlit
Object was in daylight at epoch
Visualization orbit readout
Latitude
Unknown
Longitude
Unknown
Altitude
Unknown
Speed
Unknown
Apparent Right ascension
Unknown
Apparent Declination
Unknown
Sunlit
N/A
Visualization observer readout
Local Sidereal Time
09:46:28
Azimuth
Unknown
Elevation
Unknown
Doppler factor
Unknown
Orbital elements
Apogee altitude
1,172.006 km
Perigee altitude
1,088.366 km
Semi-major axis
7,508.323 km
Eccentricity
0.00557
Inclination
100.5543°
RAAN
147.3312°
Arg. of periapsis
121.993°
True anomaly
50.92901°
Mean anomaly
50.4348°
Eccentric anomaly
50.68169°
Mean motion
3.33602 °/min
Orbital period
107.91 mins
BSTAR
0.000065143
Loading maneuver chart data...
Computing Atmospheric mass density...
Loading historical data...
Loading historical data...
Loading historical data...
Loading historical data...
Loading historical data...
Loading historical data...
Loading historical data...

Documentation

Showing up to 5 results
|